GFSNGP_sfc_dewp_246.txt.gz
Dewpoint
22 23 21 20 20 18 17 17 17 12 17 19 29 29 29 28 30 29 29 29 29 28 27 28 29 31 33 33 33 34 33 34 38 40 40 41 43 44 47 48 53 59 60 61
18 17 18 15 16 18 19 19 19 19 19 28 30 31 28 29 29 28 29 29 29 28 28 29 30 31 33 32 33 33 33 34 37 38 38 39 40 41 43 44 45 53 53 58
15 19 19 12 18 17 24 25 24 27 28 30 31 31 29 29 29 30 30 30 30 29 30 31 31 32 33 32 33 33 33 33 35 36 37 37 37 38 40 42 44 47 50 52
17 18 -1 13 29 28 27 25 27 27 28 31 33 33 32 30 29 30 32 32 31 31 32 32 32 32 31 32 32 33 33 33 34 36 36 35 35 36 38 39 41 45 46 49
9 17 17 21 28 26 24 24 25 26 28 30 33 33 30 30 31 31 33 34 34 34 33 32 30 31 31 31 31 32 33 34 34 35 35 35 35 36 36 38 39 41 42 44
15 10 9 17 26 26 29 23 25 26 29 30 31 26 26 29 33 33 34 34 35 34 33 31 31 31 31 31 31 31 32 33 33 34 34 34 35 35 37 37 38 39 39 41
17 16 19 23 24 26 22 20 24 28 29 29 28 29 29 34 33 33 34 34 34 32 31 31 32 32 31 31 30 31 32 33 33 33 33 33 34 35 35 36 37 38 38 40
21 18 13 24 20 20 23 22 25 27 28 27 28 31 32 32 32 32 33 33 32 31 31 32 32 31 30 29 30 31 31 31 31 32 32 31 33 34 35 35 36 36 37 38
21 20 23 23 22 22 22 23 26 26 27 28 28 30 31 31 32 33 33 32 32 32 32 31 31 31 30 30 30 29 29 29 29 29 29 30 31 32 34 34 35 35 36 36
19 19 22 23 23 22 22 25 26 25 27 28 31 31 31 31 33 33 32 32 32 31 31 30 30 30 30 30 30 29 28 28 28 29 29 30 30 31 33 33 34 35 35 36
20 20 20 20 22 23 24 26 26 25 29 31 31 31 31 31 32 31 29 29 30 29 29 29 29 29 28 28 28 28 29 29 29 30 30 30 30 31 30 31 33 34 34 35
16 19 19 19 21 24 24 25 26 25 28 31 31 30 30 30 30 29 28 28 28 28 29 29 29 28 27 28 28 29 29 29 29 30 30 31 31 31 32 32 32 33 34 34
20 24 24 24 24 26 26 27 26 29 30 29 29 29 28 28 27 28 27 27 28 28 28 29 29 28 27 27 29 29 28 28 29 30 31 32 32 31 31 32 33 33 33 33
26 26 24 26 25 26 27 30 31 30 29 28 27 28 27 26 26 25 26 27 27 27 28 28 28 27 27 28 29 28 29 29 29 31 31 31 31 32 32 32 32 33 33 33
26 28 26 25 26 28 31 29 28 28 28 27 27 27 26 25 25 24 26 26 27 27 27 27 27 27 28 28 29 28 29 29 29 31 31 32 33 32 32 32 32 33 33 33
26 27 28 26 26 27 30 29 27 27 28 27 26 26 26 25 25 25 25 26 27 27 26 27 27 28 28 28 29 29 29 29 29 30 32 32 33 33 32 33 34 33 33 34
24 24 27 27 29 29 29 28 28 27 27 26 26 26 26 25 25 26 28 27 27 28 28 28 28 29 28 28 29 28 28 29 29 30 31 31 32 32 33 33 33 33 33 33
26 26 27 28 29 29 29 29 28 27 26 26 26 26 25 25 24 25 26 25 26 26 27 28 29 29 27 28 28 29 29 28 29 30 31 30 31 31 32 32 32 31 32 32
27 27 28 29 29 29 29 28 26 26 26 26 24 20 20 19 21 22 23 25 25 26 28 29 29 28 27 27 28 29 28 28 28 29 30 29 29 30 29 30 30 31 31 31
27 28 29 29 30 30 29 27 27 26 26 24 19 15 15 14 13 26 25 20 26 27 28 28 28 28 28 28 28 28 28 28 27 27 28 29 28 28 29 29 29 29 29 29
28 28 29 29 28 26 26 26 25 24 25 24 20 19 17 15 14 17 18 18 20 27 26 26 25 25 26 27 28 27 27 27 27 27 27 28 28 28 28 28 28 28 28 28
29 29 28 27 26 27 26 27 27 26 25 23 20 16 15 19 17 17 15 17 26 25 26 26 24 22 23 24 24 23 22 23 24 26 26 26 26 26 27 27 26 27 27 27
30 29 29 26 27 28 28 28 27 27 23 22 20 22 21 22 22 20 20 17 22 23 24 24 21 18 20 21 21 19 18 18 18 20 21 23 26 26 26 26 26 26 26 26
29 29 29 29 29 29 28 29 28 28 26 27 26 22 24 22 20 23 20 15 12 22 22 21 13 12 12 16 16 16 16 15 15 16 17 17 18 19 22 24 25 26 26 25
29 29 30 29 29 29 29 29 29 29 28 27 27 24 26 26 22 20 19 17 13 14 12 6 7 8 10 9 9 11 13 13 13 13 14 14 14 14 15 17 17 17 18 19
30 30 30 30 30 29 29 29 29 28 28 24 22 22 22 24 22 20 18 14 16 12 12 4 3 5 6 8 5 5 8 8 8 10 11 11 12 12 12 13 13 14 14 14
29 27 29 29 29 30 29 28 27 26 26 26 27 24 20 20 19 17 14 13 13 11 5 2 4 6 7 3 4 5 6 7 4 6 5 6 7 7 9 10 11 12 12 12

GFSNGP_sfc_dewp_249.txt.gz
Dewpoint
19 18 19 17 16 19 18 17 14 8 8 13 20 26 31 30 29 28 28 28 29 30 30 31 32 32 33 34 34 34 34 37 36 37 37 38 39 40 42 44 44 45 47 51
17 17 16 14 14 16 17 16 16 16 17 25 31 32 31 29 29 29 29 29 30 31 31 32 31 31 30 31 33 34 34 35 38 37 37 37 38 38 40 41 42 43 45 47
15 17 18 19 19 17 18 20 19 19 23 29 30 31 31 30 30 29 30 31 31 31 32 33 31 31 31 32 33 33 33 33 35 37 37 37 37 37 38 39 40 42 43 45
19 18 13 14 28 22 24 27 27 27 25 27 29 32 31 31 31 29 32 32 32 32 34 32 32 32 33 32 32 33 32 32 33 34 35 36 36 36 37 37 38 39 40 42
19 18 16 18 22 25 25 23 25 24 25 28 30 30 26 28 30 33 33 34 34 35 33 32 32 32 32 31 31 30 30 32 32 33 33 33 34 36 37 37 36 37 38 39
22 17 13 13 27 27 26 21 25 25 28 28 26 20 20 29 33 34 34 33 35 34 33 32 32 32 31 30 30 29 31 32 32 33 33 32 33 35 36 36 35 37 37 39
20 20 20 21 25 28 20 18 25 26 26 28 25 24 26 31 34 34 34 34 34 33 33 33 33 32 30 29 28 30 32 32 32 31 32 32 32 34 34 35 35 37 37 39
19 19 17 26 23 23 26 24 23 28 27 28 28 29 30 32 32 32 33 32 32 32 32 33 33 31 29 26 28 29 30 30 30 31 30 29 32 33 33 33 34 35 35 37
22 21 23 26 26 25 23 23 24 28 26 26 29 29 32 32 32 33 31 30 30 30 30 31 31 30 27 27 28 28 28 30 30 30 30 30 30 31 31 31 32 33 33 33
21 22 23 24 24 23 23 24 23 27 27 27 29 32 32 32 31 30 28 28 27 28 28 29 30 29 28 27 27 27 28 29 29 29 29 29 30 32 32 32 32 32 32 31
19 21 21 22 24 25 23 25 25 26 27 26 30 32 31 30 29 28 27 26 26 27 28 28 29 29 28 27 26 27 28 28 29 29 30 29 30 31 31 32 33 32 33 33
17 21 21 20 23 24 24 24 25 26 26 31 32 30 29 27 27 26 26 26 25 27 27 28 29 29 28 28 28 28 28 28 29 29 30 30 30 30 32 32 32 32 32 33
19 23 24 25 24 25 25 25 27 28 27 30 31 29 27 26 26 27 25 25 26 26 27 27 28 28 29 29 29 29 29 29 29 29 30 30 31 31 30 32 32 32 32 33
26 25 24 26 25 27 28 27 32 31 30 30 28 28 27 25 25 24 23 25 26 27 26 27 27 27 28 29 28 29 29 29 30 30 30 32 31 31 32 32 32 33 33 33
26 27 26 26 27 27 30 32 31 30 29 28 28 26 26 25 24 24 24 25 26 27 27 27 27 28 28 28 27 29 29 28 29 30 30 31 32 31 32 32 33 33 34 34
27 27 28 27 26 26 28 30 30 30 29 28 27 26 26 25 25 25 26 28 27 26 27 27 28 28 29 28 28 29 30 29 28 29 30 31 31 31 31 32 32 33 33 33
25 26 27 28 28 28 29 30 30 31 30 28 27 27 26 25 25 25 27 28 27 27 27 28 28 29 29 29 28 29 30 29 28 28 30 30 31 32 32 32 31 30 32 32
27 28 31 31 31 32 32 33 33 32 31 30 29 28 27 27 27 27 28 28 27 27 28 29 29 30 29 28 28 29 29 29 28 29 28 30 31 31 31 31 31 31 32 31
27 27 28 29 31 33 33 33 33 32 30 30 28 27 27 27 26 27 27 26 26 26 27 28 28 27 28 28 28 29 29 28 27 28 29 29 30 31 31 31 31 31 31 30
28 29 29 29 30 32 32 32 32 30 30 29 26 25 25 25 24 25 27 25 26 28 28 28 27 26 25 26 27 28 27 27 27 28 28 29 30 30 30 29 29 30 31 32
28 29 30 31 31 31 31 31 30 29 29 28 26 26 25 27 24 23 26 28 27 27 26 27 26 25 25 25 26 26 26 25 25 25 26 27 28 28 29 29 29 29 29 30
30 30 30 30 29 30 30 30 29 29 28 28 26 25 24 25 25 25 25 27 28 25 25 26 25 22 22 22 25 24 23 23 23 23 23 24 25 26 27 28 28 27 28 29
30 30 30 29 30 31 30 30 29 28 27 27 26 26 26 30 30 28 28 26 27 24 25 24 19 17 18 23 23 22 21 21 21 21 21 21 21 22 22 23 24 25 25 26
31 31 31 30 30 30 29 30 29 29 29 29 29 27 27 28 29 29 28 22 18 22 23 21 17 14 15 20 20 20 19 19 19 19 18 17 19 19 19 19 19 21 21 21
31 31 31 30 30 30 30 31 30 30 30 30 29 29 28 28 30 28 27 24 19 20 20 12 12 12 16 16 15 14 15 14 13 15 15 15 15 15 16 17 17 17 18 18
31 31 31 31 32 31 31 31 31 31 30 31 31 31 30 28 26 25 22 21 19 16 18 17 15 14 14 12 12 12 12 12 12 11 11 11 11 11 11 12 13 14 14 14
32 31 31 31 32 32 32 31 32 32 31 33 32 30 29 27 25 21 19 19 18 16 15 14 14 12 12 11 10 10 11 10 8 9 10 10 10 10 9 10 10 12 11 11

GFSNGP_sfc_dewp_255.txt.gz
Dewpoint
13 16 18 19 18 16 15 18 20 14 11 7 11 17 21 25 27 27 27 26 27 28 28 28 29 28 28 29 29 29 29 30 32 34 35 36 38 39 39 40 40 40 40 40
17 12 11 9 10 16 16 15 14 11 12 12 12 21 26 27 27 26 25 25 27 27 26 28 26 27 27 28 29 30 29 29 30 32 33 35 38 38 38 38 38 40 40 40
16 15 15 22 19 10 12 15 14 15 14 15 21 24 26 27 26 25 26 26 26 27 28 27 26 27 27 28 28 28 28 28 29 32 32 34 34 34 37 39 39 38 39 39
23 19 23 21 18 15 11 12 14 14 14 21 21 26 27 26 25 25 26 27 29 29 28 26 25 25 28 27 27 28 27 28 30 30 31 32 33 34 38 38 39 38 38 38
28 21 18 17 19 17 15 13 16 16 17 23 23 26 27 25 26 27 28 31 32 30 27 24 24 26 27 27 26 25 27 28 28 30 30 31 32 33 34 35 36 37 35 37
28 27 24 21 17 20 17 18 19 21 22 24 24 24 23 26 27 27 30 32 31 28 23 23 26 27 27 27 26 27 28 28 28 30 31 32 32 34 35 35 33 34 33 36
27 28 24 19 19 23 18 23 21 23 24 25 25 24 27 28 26 29 30 28 25 21 21 23 25 26 26 27 28 29 29 29 28 29 32 31 33 33 32 32 32 34 33 36
25 28 24 23 23 20 26 28 24 23 25 27 26 26 26 24 26 27 27 25 18 18 19 22 24 24 26 26 29 28 29 28 28 30 29 29 32 32 32 33 33 34 34 35
25 25 28 27 29 27 29 26 24 25 23 26 26 24 22 25 27 28 26 19 14 16 19 20 22 25 27 29 29 29 29 28 28 30 30 30 31 31 32 33 33 33 33 34
25 25 26 26 26 27 27 25 23 22 23 25 25 25 24 27 28 28 22 14 15 17 18 20 23 25 28 28 28 29 28 27 28 30 30 31 30 32 32 33 35 34 33 33
25 22 25 23 25 26 26 23 23 23 23 22 23 24 23 26 28 27 16 16 17 18 20 22 24 26 27 27 29 28 28 27 29 30 30 30 30 32 32 34 33 34 34 34
24 25 26 25 25 25 25 24 25 23 22 23 23 23 23 28 28 21 16 18 17 19 22 24 25 26 27 29 30 29 27 27 29 31 32 31 32 33 33 33 33 33 33 33
23 22 27 23 22 23 23 25 25 24 21 22 24 24 27 28 26 22 18 17 18 21 24 25 25 26 28 30 31 29 28 28 30 31 32 32 32 33 32 34 33 33 33 32
23 24 24 24 22 21 21 23 26 21 23 23 23 27 30 26 21 16 17 18 21 22 24 25 26 27 29 31 30 28 28 29 29 32 32 33 32 33 33 33 32 32 33 32
22 24 22 24 22 23 24 24 25 25 26 27 28 30 28 22 19 18 18 21 23 24 23 26 26 27 29 31 29 29 28 29 30 33 33 32 33 33 32 32 32 31 33 32
23 24 24 22 24 23 24 26 27 28 29 30 31 30 27 19 18 19 20 23 26 26 25 27 28 28 31 30 30 31 30 30 30 30 32 31 32 31 30 30 31 32 32 32
23 26 27 27 25 26 25 27 28 29 33 32 32 31 26 22 21 20 22 25 26 28 28 28 29 29 30 30 30 31 31 32 30 30 28 30 30 30 31 29 29 30 32 32
22 26 28 29 31 33 31 32 33 31 35 35 36 34 30 27 27 27 28 30 30 29 30 30 30 30 30 30 30 31 32 31 30 30 29 29 30 29 30 30 29 29 30 31
23 23 27 28 31 34 34 35 36 36 38 39 38 36 35 34 37 37 32 32 31 31 33 31 29 29 30 29 29 31 31 30 29 29 27 27 28 29 29 30 30 29 30 30
25 24 26 27 31 36 34 36 38 39 39 38 34 33 33 33 33 32 33 32 35 36 34 30 29 30 31 30 29 31 29 28 28 28 28 27 28 28 29 28 28 28 28 28
27 27 30 34 34 39 40 39 39 39 38 34 34 33 33 33 33 33 31 34 34 34 32 29 30 30 30 29 30 31 29 28 28 27 27 27 27 27 27 25 27 28 28 27
29 32 36 38 37 35 38 38 37 38 36 34 34 34 33 32 32 32 33 35 37 30 30 30 30 27 27 25 29 28 27 26 26 26 26 25 25 25 25 25 25 26 26 26
30 31 34 36 36 34 34 34 37 37 36 34 33 32 32 32 33 32 32 36 34 31 30 29 27 23 21 28 28 27 27 26 25 25 25 24 24 23 23 22 22 23 23 23
30 32 34 34 33 32 32 32 34 36 36 34 34 35 32 34 36 36 37 34 31 30 32 33 27 19 19 30 29 28 27 26 24 25 23 21 24 23 22 22 21 21 21 21
30 32 33 32 31 33 31 34 34 34 34 33 34 33 34 34 37 36 36 34 29 28 29 23 20 18 28 29 27 26 26 25 23 23 22 22 21 21 20 20 19 19 19 19
30 31 31 31 32 31 33 34 34 34 33 35 36 39 38 36 35 35 36 32 30 27 30 27 25 25 26 25 24 24 24 21 22 21 20 19 19 18 18 17 18 18 18 17
32 32 33 33 32 35 36 35 36 37 36 38 37 39 40 39 37 34 33 33 30 29 30 28 25 23 25 24 22 21 21 20 16 17 19 18 17 18 16 17 17 17 16 16

GFSNGP_sfc_dewp_261.txt.gz
Dewpoint
25 19 18 19 20 21 24 25 21 26 25 25 25 25 24 23 26 28 27 27 28 28 29 28 28 27 29 29 30 30 30 31 32 34 34 34 35 35 35 35 35 36 35 35
17 15 15 19 16 18 21 20 18 24 22 26 26 25 24 24 26 26 27 26 27 27 27 26 25 27 28 29 30 32 31 31 33 33 32 33 34 34 34 34 34 34 33 33
20 20 19 13 18 16 17 18 19 16 15 19 21 21 24 26 26 27 27 27 28 29 27 25 25 28 28 29 31 31 32 32 32 33 33 34 32 33 33 32 33 31 32 32
22 20 4 17 20 17 17 16 19 19 16 16 17 23 27 28 29 27 27 30 30 29 26 25 27 27 28 29 29 32 32 32 33 34 32 32 33 31 32 32 31 31 32 33
19 21 20 23 19 15 14 15 20 18 16 20 23 27 27 29 29 29 32 34 32 30 26 25 25 27 26 28 30 31 32 32 33 33 32 32 31 31 31 30 30 31 32 32
24 18 14 23 23 21 19 15 17 19 17 25 25 25 27 29 30 33 34 34 32 27 24 24 25 25 26 28 30 30 32 33 32 33 32 31 31 30 30 31 31 32 33 34
24 21 27 25 21 21 13 14 20 19 18 26 25 28 30 32 33 34 33 32 28 25 24 23 24 25 26 29 29 31 32 33 32 32 31 31 31 30 31 31 32 32 30 31
25 18 14 24 21 17 23 27 24 22 26 30 30 30 31 30 32 31 30 26 22 22 23 25 26 26 27 27 30 31 32 31 31 32 30 30 30 30 31 32 33 31 31 31
26 25 29 24 27 32 29 28 28 30 31 31 30 29 28 28 30 29 26 18 17 18 22 23 24 26 27 28 30 31 30 30 31 31 30 30 30 31 31 32 32 32 31 31
26 27 27 27 29 30 29 27 28 29 31 31 30 28 26 28 29 28 24 15 16 19 21 23 24 26 27 30 30 30 30 29 30 30 30 30 31 32 32 31 31 31 32 30
26 28 28 28 29 30 28 27 27 28 29 29 28 26 26 29 29 26 16 18 18 21 22 23 25 26 28 30 31 29 29 29 29 30 30 30 30 31 31 31 31 31 31 30
25 30 29 27 30 30 26 25 26 27 28 28 27 27 26 28 30 19 18 18 19 22 24 24 25 27 30 32 31 30 29 29 30 29 29 29 29 30 32 31 31 31 32 31
29 33 31 30 31 28 25 25 26 27 26 25 26 27 26 29 27 24 19 19 21 24 25 25 25 28 31 32 31 31 29 29 29 29 30 28 27 28 28 30 30 30 30 30
29 32 31 30 27 29 27 27 31 26 26 25 26 26 27 28 20 17 18 20 23 24 26 26 27 29 31 31 30 30 30 29 28 28 32 27 27 27 27 27 26 26 28 29
30 31 30 30 29 30 29 30 28 27 26 25 26 28 27 23 19 19 21 21 23 24 27 27 28 30 31 30 30 31 30 28 28 28 30 26 27 27 27 27 26 25 25 26
30 30 27 27 26 27 28 30 28 28 27 28 28 29 27 25 21 22 23 26 26 26 27 29 29 31 31 30 30 30 29 27 28 28 27 27 27 27 27 26 25 25 25 25
28 27 29 27 27 26 26 30 29 28 31 30 31 33 28 24 23 23 26 29 29 29 29 30 30 31 30 31 29 29 28 29 26 28 26 26 27 27 27 26 25 25 24 25
28 29 30 29 29 29 29 32 32 32 32 33 34 32 28 26 24 26 29 29 29 28 30 31 31 29 30 29 28 27 29 29 27 27 26 25 28 27 27 26 25 25 25 23
28 29 32 31 32 31 31 32 32 34 34 33 32 30 27 27 26 28 28 26 25 27 28 29 27 27 28 27 26 28 29 26 25 25 25 24 25 25 25 24 23 22 23 21
27 28 31 32 35 33 33 33 33 34 33 33 31 29 27 28 28 27 27 26 26 26 29 28 27 28 27 27 25 24 28 26 25 25 26 25 25 21 23 20 17 16 14 18
29 28 29 34 32 33 34 34 33 33 34 32 31 29 29 29 27 27 24 26 30 33 30 27 27 26 26 26 24 23 23 26 20 18 22 21 22 21 22 13 13 11 10 12
30 31 29 31 32 33 34 34 34 35 33 32 31 29 29 30 30 27 21 25 30 31 28 28 27 25 25 21 25 21 20 19 17 16 14 15 17 9 6 6 6 7 6 4
30 31 32 32 32 34 35 36 35 34 32 32 30 29 29 30 29 28 27 30 32 31 29 28 26 21 18 22 23 19 18 16 15 14 12 10 9 7 7 6 6 5 3 5
32 31 34 35 36 36 35 37 37 35 33 32 31 30 30 29 27 27 28 30 32 30 28 24 23 20 18 23 21 19 18 16 14 13 15 11 7 7 6 3 5 5 5 5
33 35 36 36 36 35 36 38 37 35 34 33 31 31 31 30 28 30 31 30 29 29 28 19 19 16 18 20 19 17 16 15 12 11 11 9 7 4 3 4 2 3 2 3
34 35 35 35 36 36 38 37 36 35 33 32 32 31 32 34 33 34 31 29 29 26 24 19 16 16 18 20 18 15 17 16 13 12 10 10 9 6 4 4 2 2 1 0
34 34 34 34 35 35 36 36 35 34 34 33 32 32 33 34 34 33 30 29 28 27 25 21 19 18 21 19 19 17 17 14 10 11 7 6 6 2 2 2 1 0 -0 -1

GFSNGP_sfc_dewp_264.txt.gz
Dewpoint
21 19 20 20 19 22 24 25 21 24 25 27 27 28 28 28 28 28 28 28 28 29 29 28 28 29 28 29 30 31 31 31 32 32 33 34 35 35 34 33 33 33 32 33
18 16 17 19 17 19 24 24 25 26 25 27 27 27 26 26 28 28 27 27 27 27 25 25 27 27 28 29 31 32 31 32 33 33 34 34 34 33 32 32 32 32 32 32
18 19 17 14 20 20 23 22 26 25 27 26 25 24 24 26 27 27 27 27 27 25 24 25 27 28 28 29 32 32 32 33 33 34 33 34 32 31 31 31 31 31 32 33
21 18 7 19 18 19 20 21 20 19 24 25 25 25 24 26 28 27 27 28 26 25 25 27 27 27 28 30 32 32 32 33 34 34 33 32 31 30 31 31 31 32 32 32
18 18 19 21 20 18 19 18 21 18 27 25 24 25 26 29 28 28 30 30 28 27 27 27 27 26 28 31 31 32 32 32 32 34 32 31 30 30 30 31 32 32 30 30
21 14 11 18 24 19 18 15 21 18 20 21 24 22 25 30 30 32 32 31 29 27 26 26 26 27 30 30 30 31 32 32 33 33 32 31 31 30 31 32 32 30 30 31
23 18 23 25 25 19 16 18 20 19 20 24 22 23 30 32 33 33 31 30 27 25 25 25 25 28 29 29 30 32 32 33 33 31 30 31 31 31 32 32 32 31 28 30
24 18 16 28 22 16 19 24 20 21 25 25 29 30 32 32 32 31 29 27 24 23 24 26 27 28 27 28 31 31 31 32 31 31 30 30 30 31 31 32 31 30 30 29
25 22 27 27 24 23 26 25 22 23 27 30 30 30 31 31 30 29 25 21 21 22 24 26 27 28 28 30 31 30 30 30 30 30 30 30 30 30 30 31 30 29 30 28
25 26 27 27 28 29 28 27 28 27 30 30 29 30 31 31 29 27 20 17 20 22 24 25 27 27 30 30 30 30 29 29 30 30 29 29 29 30 30 29 28 28 29 28
25 25 29 27 30 28 29 32 30 30 30 29 29 28 30 30 28 20 16 18 20 22 23 25 27 29 30 31 30 29 29 29 29 29 28 28 28 29 30 30 29 28 28 28
22 28 28 28 30 28 29 30 31 30 30 29 27 27 29 28 26 16 17 20 21 23 24 26 28 30 31 31 30 29 28 29 28 29 28 28 27 28 30 31 31 30 30 29
27 30 30 30 30 27 27 29 30 30 28 26 26 28 29 28 19 21 19 20 22 23 25 26 29 30 31 31 30 30 28 28 28 28 29 27 26 26 25 27 29 29 29 29
32 32 30 32 27 27 27 29 31 28 27 27 26 27 30 23 21 18 19 21 24 25 26 27 29 30 31 30 30 30 29 29 28 27 27 26 25 26 25 25 25 25 27 27
33 30 29 30 28 27 28 29 28 26 26 27 27 29 28 20 19 19 21 23 24 25 26 29 30 30 30 30 30 29 28 28 27 27 26 25 25 26 26 25 25 24 24 24
33 31 30 30 27 26 27 27 27 26 27 28 29 29 24 20 20 21 23 25 26 26 27 29 30 30 30 30 30 29 28 26 26 26 26 26 25 26 25 25 24 25 24 23
30 29 30 30 29 27 27 27 27 28 28 28 29 28 23 21 22 23 24 26 28 28 29 29 30 30 30 30 29 28 27 27 25 26 26 26 26 26 27 24 23 22 23 22
28 29 30 30 30 30 30 30 30 29 29 29 31 28 25 23 23 25 28 29 28 28 30 30 30 30 30 29 29 27 26 26 26 26 26 26 26 26 24 22 22 21 20 19
30 29 30 29 30 30 32 32 31 30 31 32 30 28 27 26 26 27 28 27 27 27 29 30 28 29 28 27 27 26 25 25 25 25 25 23 21 22 19 18 16 15 15 16
29 30 30 31 32 30 31 31 31 31 32 32 31 28 27 27 28 28 28 27 28 28 29 28 28 28 27 26 25 25 24 23 22 21 20 19 14 12 15 12 13 11 6 12
29 31 32 33 31 30 30 31 31 30 31 31 30 28 27 28 28 28 27 26 25 28 29 26 27 27 27 25 24 23 22 19 17 15 12 9 9 11 9 6 7 6 3 4
30 30 31 31 31 31 31 32 31 32 32 31 31 28 28 28 28 28 27 28 30 28 28 28 27 25 26 23 25 22 21 20 17 14 10 8 8 4 2 1 1 2 -0 -2
29 30 30 32 31 32 33 33 32 32 32 32 30 28 27 28 28 27 26 28 31 32 29 28 25 23 21 25 24 21 20 17 15 14 11 8 7 3 3 3 1 1 -3 0
32 32 31 33 33 33 33 33 33 33 32 31 30 30 29 29 29 29 30 30 29 30 29 27 24 21 19 23 22 19 18 16 15 13 14 9 6 2 2 -0 2 1 -1 0
31 31 32 33 33 33 34 34 33 33 32 31 30 30 30 30 29 29 30 31 29 30 27 22 21 19 22 22 20 18 17 16 14 13 13 10 8 2 -1 1 -1 -1 -3 -4
32 32 32 33 34 35 35 35 33 33 32 31 31 31 31 31 30 30 29 31 31 29 25 21 21 19 20 21 19 17 17 17 14 12 11 11 9 6 1 1 -1 -2 -5 -7
35 34 35 35 36 37 36 35 34 33 33 32 31 32 31 31 30 31 29 29 29 27 22 20 19 18 21 20 19 17 17 15 11 12 10 8 7 2 -1 -2 -4 -5 -7 -7

GFSNGP_sfc_dewp_267.txt.gz
Dewpoint
20 19 20 19 16 20 25 24 20 21 26 27 28 28 28 28 28 28 28 29 28 28 28 29 30 29 29 30 31 31 31 31 32 33 34 34 33 33 33 32 32 32 32 33
21 18 22 18 18 18 21 24 22 26 25 28 28 28 28 28 27 27 28 28 28 27 27 27 28 28 28 31 32 32 31 32 33 34 34 33 32 32 32 31 32 32 31 31
18 18 16 16 19 16 19 24 23 24 26 28 28 28 28 28 27 28 28 27 27 26 25 27 27 28 29 32 32 32 33 33 33 34 33 32 32 31 31 31 32 32 31 31
21 18 8 18 17 17 18 18 25 25 27 28 28 28 28 28 28 28 28 28 27 25 25 27 28 28 31 32 32 32 32 32 34 33 32 31 31 30 31 31 32 31 30 31
18 18 18 17 20 19 19 18 23 23 27 28 27 25 25 29 29 29 28 29 27 26 27 27 27 29 31 31 32 32 31 32 33 32 31 31 30 30 31 31 32 31 30 30
21 14 12 18 21 20 21 17 23 25 27 27 25 24 25 30 30 30 30 29 28 28 27 26 27 30 29 30 30 31 31 33 31 32 31 30 30 30 31 31 32 32 29 30
21 16 20 21 24 21 17 16 23 26 28 27 25 26 28 31 30 31 30 28 28 27 26 25 28 29 29 30 30 32 33 32 31 30 30 30 30 31 31 31 30 29 30 29
23 16 14 27 23 18 19 20 23 25 28 27 28 31 31 31 31 30 28 27 25 25 25 27 29 29 29 29 31 31 32 31 30 30 30 30 29 30 30 29 28 28 28 28
23 21 25 28 25 23 22 22 23 24 28 28 30 31 31 31 31 29 26 23 23 23 25 27 28 28 28 30 30 31 31 30 30 30 29 29 28 28 28 28 27 27 26 25
24 25 23 26 27 25 27 24 23 23 26 30 30 32 31 31 29 28 23 22 22 23 25 26 28 28 29 30 31 30 30 29 29 28 28 28 28 29 28 27 27 27 26 25
25 25 28 26 26 27 27 28 24 26 27 29 31 31 31 30 29 26 21 21 22 23 24 26 28 29 30 30 29 29 29 29 29 28 27 27 27 28 28 28 29 27 26 26
22 24 27 27 28 29 30 29 29 30 29 30 30 30 30 30 27 22 20 21 22 23 25 27 29 29 30 30 29 29 28 28 28 28 28 27 26 26 28 29 29 29 29 28
25 27 27 28 30 30 30 30 30 30 30 30 30 30 30 29 23 23 21 21 23 24 26 28 29 30 30 31 30 29 28 28 28 28 27 26 25 24 22 25 28 27 27 26
29 31 29 31 28 30 31 32 34 30 30 30 30 30 29 24 21 19 20 21 23 25 27 28 29 30 30 30 30 29 28 27 28 27 25 25 24 25 24 24 24 24 25 24
29 29 29 30 28 29 32 32 30 28 28 28 30 30 25 20 20 19 21 23 24 26 27 29 29 29 30 30 29 29 28 27 27 25 25 24 25 25 25 24 24 24 24 22
29 31 31 30 27 30 30 30 28 27 28 29 30 28 23 21 20 21 23 25 25 26 28 29 29 29 30 30 29 28 29 27 25 25 25 25 24 25 25 24 23 22 21 20
32 29 31 29 28 29 29 30 29 29 29 29 30 26 23 21 21 23 25 26 26 27 29 29 29 29 30 30 28 28 28 27 24 25 25 25 24 25 24 23 21 20 19 19
28 31 32 30 29 29 30 30 30 30 29 30 29 26 23 23 23 24 26 28 28 28 29 29 30 30 30 30 28 28 27 27 26 25 25 25 23 23 22 21 20 17 16 14
30 31 32 30 29 30 30 30 30 30 30 30 27 26 26 26 25 26 27 27 27 27 28 30 29 29 29 28 28 27 25 25 25 24 24 20 20 21 17 16 13 11 10 11
30 32 32 31 31 30 30 30 30 30 30 30 28 27 26 26 27 27 27 27 27 28 29 29 29 28 28 27 26 26 25 23 23 21 19 17 12 9 10 10 10 7 2 6
30 31 32 32 31 30 31 31 30 30 30 30 28 27 27 27 27 27 27 26 25 29 29 28 29 27 27 26 25 24 23 20 19 17 14 9 5 9 6 5 6 3 0 1
30 32 31 30 30 31 31 31 31 31 30 30 29 28 27 27 27 27 26 27 28 29 29 28 28 26 26 24 25 23 21 20 18 16 12 9 7 5 -0 -0 0 -1 -3 -6
30 31 31 30 30 31 32 32 31 31 31 30 29 27 27 27 28 26 25 28 29 29 29 28 26 24 23 26 25 23 21 18 16 15 12 10 9 7 4 3 -1 -1 -6 -2
30 31 32 33 33 31 31 31 31 31 31 30 29 29 28 28 28 28 30 29 28 28 29 27 25 24 24 25 23 22 20 18 16 14 14 8 7 5 4 0 1 -2 -4 -2
32 32 33 33 32 31 31 32 32 32 31 30 29 28 28 28 28 29 29 30 29 28 28 25 24 23 26 25 23 22 19 18 16 14 14 11 8 6 4 3 -0 -2 -6 -6
31 31 31 31 32 33 33 33 32 32 32 30 30 30 30 30 30 30 29 29 30 29 27 26 25 25 25 24 22 20 18 18 16 15 13 12 10 7 5 3 -2 -1 -7 -9
32 31 32 33 34 34 34 34 33 32 32 31 30 31 30 30 29 30 29 29 29 28 26 26 25 25 24 23 22 20 18 17 14 14 12 10 9 5 4 3 -1 -4 -9 -9

GFSNGP_sfc_dewp_270.txt.gz
Dewpoint
21 15 18 19 18 23 25 23 20 21 24 29 32 31 30 29 29 28 30 30 31 29 29 30 30 29 29 31 31 31 31 31 32 33 32 32 32 32 32 32 32 33 32 32
19 21 20 17 17 19 20 23 24 23 24 29 32 31 30 28 28 28 29 30 29 28 28 29 28 28 30 30 31 32 32 32 33 32 31 31 31 32 32 32 32 32 31 32
17 22 19 19 19 16 17 21 22 22 23 29 29 29 29 29 28 28 29 30 28 28 27 28 27 28 30 31 32 32 32 33 33 32 31 31 31 31 31 31 32 31 31 32
21 18 11 17 18 17 16 16 21 23 26 29 28 30 30 30 29 28 29 29 28 27 27 28 28 29 31 31 32 32 32 33 32 31 31 31 31 30 31 31 31 31 30 31
18 17 17 17 19 19 18 16 19 22 27 29 29 29 29 30 30 29 30 30 30 28 28 28 28 30 31 31 31 31 32 32 31 31 30 30 30 30 31 31 31 31 30 29
21 15 13 18 20 22 21 17 19 21 26 29 29 27 28 30 30 30 31 31 30 28 28 27 29 30 30 30 30 30 32 32 31 31 30 30 30 30 30 30 30 30 29 29
21 17 21 22 21 22 15 15 20 23 25 29 28 29 29 31 31 31 31 30 28 27 26 26 30 30 30 30 29 31 32 30 30 30 30 30 30 30 29 29 28 28 28 28
21 17 15 24 22 18 20 20 21 25 27 29 29 31 31 31 30 30 29 28 27 26 26 28 30 29 29 28 31 32 31 30 30 30 29 29 29 29 29 28 26 27 26 25
21 20 24 26 24 24 22 21 22 26 29 30 30 30 30 30 30 29 27 26 25 25 26 29 29 29 28 30 31 31 30 29 29 29 28 28 28 28 27 27 26 26 26 24
24 23 23 23 25 26 23 22 22 25 30 31 30 31 30 30 30 28 26 25 24 24 26 28 28 28 29 30 31 30 29 29 28 27 27 27 28 28 27 27 26 26 26 25
24 26 26 26 25 26 27 27 24 24 30 30 31 30 31 30 29 26 25 24 24 24 25 27 28 29 30 30 30 29 29 29 28 28 27 26 27 28 28 28 28 26 26 26
20 25 25 26 26 28 27 27 27 26 29 31 31 31 30 30 28 25 24 24 23 24 26 27 28 29 29 29 29 28 28 28 28 28 27 26 26 25 28 29 28 27 26 25
19 23 27 31 31 28 27 28 29 28 29 31 31 31 30 29 26 26 23 23 23 24 26 27 28 28 29 30 29 29 28 28 28 28 26 25 25 24 23 25 27 26 25 24
19 20 23 30 29 27 30 31 34 30 30 31 31 31 30 28 25 23 23 23 24 25 27 28 28 29 30 30 29 28 28 26 28 27 25 25 24 24 24 23 23 24 24 20
24 23 21 23 27 29 32 33 31 30 31 31 31 31 29 25 24 23 23 23 25 26 27 28 28 29 30 30 28 28 28 27 27 25 25 24 25 25 24 24 23 22 21 19
20 19 20 28 32 30 32 32 30 30 31 31 31 30 26 24 24 23 23 25 26 26 28 28 28 29 30 29 29 28 28 26 25 25 25 25 25 25 24 23 21 20 18 17
19 22 31 32 32 30 31 31 31 30 32 31 31 27 25 24 23 23 24 25 26 27 28 28 28 29 30 29 29 28 28 26 25 26 25 25 25 24 23 21 20 18 17 16
30 32 32 33 32 31 32 32 31 30 31 32 29 26 24 24 24 24 26 26 27 28 28 29 29 29 30 29 29 28 27 26 26 25 25 24 24 22 21 20 18 15 14 12
33 32 32 32 33 32 32 31 30 31 32 30 27 26 26 27 25 26 26 27 27 27 28 29 29 29 29 28 28 28 27 26 25 25 24 20 21 20 18 16 14 12 10 9
29 30 32 32 33 32 32 31 31 31 31 28 28 27 26 26 27 27 27 26 27 28 29 29 29 29 28 27 27 27 26 25 24 22 21 19 16 13 13 11 11 8 3 6
29 32 31 33 32 31 31 31 31 30 29 29 28 27 27 27 27 27 26 26 24 29 29 28 28 28 28 27 26 25 24 23 21 20 17 14 10 12 10 10 9 6 2 3
32 32 32 32 31 30 31 31 31 30 29 29 28 28 27 26 27 27 26 27 28 28 28 29 28 27 27 25 26 24 22 21 20 18 15 12 11 9 7 6 5 3 0 -4
31 33 32 31 31 31 31 31 30 30 29 29 29 27 26 27 27 26 25 27 29 28 29 29 27 25 24 26 25 23 21 20 18 18 15 13 12 10 7 6 4 4 -3 -0
32 33 32 33 33 31 31 31 30 30 30 29 29 29 28 27 27 28 28 28 28 28 29 27 26 24 26 26 24 23 22 19 19 17 16 12 10 9 7 5 5 2 0 0
35 34 33 33 32 31 31 31 31 31 30 29 29 28 28 29 28 29 29 29 28 28 28 25 25 24 26 25 24 24 22 21 20 18 17 14 10 8 6 6 5 3 -1 -1
32 32 32 32 32 32 32 32 31 31 30 29 29 30 30 30 29 29 29 28 28 28 26 26 26 26 25 25 24 24 22 20 18 18 17 14 11 10 7 5 3 3 -1 -3
32 32 32 33 33 33 33 32 32 31 30 30 29 30 30 29 29 29 28 28 28 27 26 26 26 26 25 25 24 23 22 20 18 17 16 13 11 9 7 6 3 1 -3 -5